Wind_Speed
23 24 22 20 18 19 20 20 21 20 20 19 19 20 20 20 19 20 20 21 23 24 24 22 22 22 22 21 21 20 20 19 18 17 15 15 14 13 12 11 10 10 9
22 23 22 21 20 20 20 20 21 20 19 19 20 20 20 21 21 21 21 21 22 23 24 25 24 24 25 24 24 24 23 22 21 20 18 17 16 15 14 14 12 11 10
19 19 20 21 20 20 20 21 21 21 21 21 21 21 21 21 22 23 23 21 22 23 25 25 26 26 27 26 26 27 26 25 24 23 22 20 19 18 17 16 15 14 13
16 17 18 20 20 20 20 21 21 22 23 23 23 23 23 23 23 24 24 23 23 23 25 27 27 27 28 28 28 29 29 27 27 26 25 24 22 21 19 18 17 16 15
17 18 19 20 22 22 22 23 23 24 24 25 25 25 25 25 24 25 25 25 25 25 25 27 28 29 29 29 30 30 31 31 29 28 28 27 25 24 22 21 19 18 17
19 20 21 22 23 23 24 24 25 25 26 27 27 27 27 27 26 26 27 27 27 27 26 27 28 29 30 31 31 32 31 33 32 30 30 29 28 27 25 23 22 20 19
21 21 22 22 23 24 24 25 26 27 28 28 29 29 29 29 29 28 28 28 28 28 28 28 29 29 31 32 32 32 33 33 33 32 32 31 31 29 28 26 24 23 22
22 22 23 24 25 25 26 27 28 28 29 29 29 30 30 30 31 30 30 29 29 30 29 29 29 29 30 32 32 33 35 35 35 34 34 34 33 32 31 29 27 26 24
22 23 24 25 26 26 26 27 28 29 30 30 31 31 31 31 31 31 31 31 31 31 31 30 30 31 31 31 33 32 34 36 36 36 35 36 35 35 34 32 30 29 27
23 23 24 25 26 26 27 27 28 29 29 30 31 31 31 31 32 32 33 33 32 33 33 32 32 32 32 32 33 34 34 35 37 37 37 36 37 37 36 35 33 30 29
23 24 24 25 26 27 27 28 28 29 29 29 30 31 31 32 33 33 34 35 34 34 34 34 34 33 33 33 34 35 36 35 36 37 38 37 38 38 38 37 35 32 30
24 24 25 26 27 27 28 28 29 29 29 29 30 30 31 32 32 33 33 34 35 35 36 36 35 35 35 34 35 36 36 37 37 36 38 38 38 38 38 38 36 34 32
26 26 26 27 28 29 29 30 30 30 30 30 30 30 31 32 33 33 34 34 34 35 36 37 37 37 37 36 36 37 37 37 38 38 38 38 38 38 38 38 37 36 34
27 28 29 29 30 30 31 31 31 31 31 31 32 32 32 32 33 33 34 34 34 35 36 37 37 37 38 38 37 38 38 39 39 39 40 39 38 38 39 38 38 37 35
29 29 30 31 31 32 32 32 33 33 33 33 34 34 34 34 34 34 34 35 35 35 35 37 37 38 39 39 39 38 38 40 40 40 41 41 40 39 40 39 39 37 36
31 31 32 32 33 33 33 34 34 35 35 35 35 36 36 36 36 36 36 36 36 37 36 37 38 38 39 40 39 39 38 40 42 41 42 42 41 40 41 40 40 39 37
32 33 34 34 34 35 35 36 36 36 36 36 37 37 37 38 38 38 38 38 38 38 37 38 39 40 40 40 40 40 40 41 41 41 42 43 43 43 42 41 42 41 39
34 35 35 35 36 36 36 37 37 37 37 37 38 38 38 39 39 39 39 39 39 39 39 38 40 41 41 41 41 41 41 41 41 42 42 44 44 44 44 42 42 42 40
36 37 37 37 38 38 38 37 37 37 37 37 38 38 38 38 38 39 39 39 39 39 39 39 40 41 42 43 42 41 42 41 41 41 41 43 45 45 45 44 43 43 42
38 39 39 39 39 39 39 38 37 37 36 36 37 37 37 37 38 38 38 38 39 39 39 39 39 40 42 43 44 43 43 42 41 41 41 42 43 45 45 46 45 45 44
39 40 41 41 41 40 39 38 37 36 36 36 36 36 36 36 37 37 37 38 38 38 39 39 39 40 41 42 44 45 44 44 43 42 42 42 43 44 45 46 47 46 45
41 42 42 42 41 40 38 37 36 35 35 35 35 35 35 35 36 36 37 38 39 39 39 40 40 41 42 43 44 45 44 44 43 43 43 43 44 45 45 46 46 47 46
43 43 43 43 41 40 38 37 36 35 35 35 35 35 35 35 35 35 36 37 38 39 40 41 41 41 42 43 44 45 45 44 44 44 44 44 44 45 46 46 47 47 47
45 45 44 43 41 40 38 37 36 35 35 35 34 34 34 34 34 35 35 36 37 38 39 41 41 41 43 45 45 45 46 45 45 45 44 43 44 45 46 47 48 48 48
45 46 44 43 41 39 38 37 36 36 35 34 34 33 33 33 34 35 35 35 36 37 39 40 41 41 43 44 45 45 46 46 46 45 45 45 44 45 46 47 49 48 48
46 45 44 43 40 39 38 37 36 36 35 34 33 33 33 33 33 34 34 35 35 37 37 38 39 41 42 43 44 45 46 46 46 47 47 47 46 46 46 47 49 50 49
Wind_Direction
281 278 276 278 278 279 279 277 272 271 271 272 273 273 271 269 268 267 268 263 258 253 248 248 245 242 241 242 240 239 237 234 232 228 225 221 218 216 214 213 211 210 209
282 277 275 277 279 281 279 278 276 274 276 277 273 270 268 268 269 267 270 264 257 253 248 246 245 244 242 242 241 240 238 236 234 232 229 225 223 222 220 217 216 216 217
286 279 279 278 277 280 279 278 276 276 277 276 273 269 267 268 267 266 267 264 258 254 250 247 246 245 244 244 242 240 239 237 235 234 231 228 226 225 225 223 221 220 220
288 284 281 280 280 281 281 280 279 277 275 274 273 269 267 267 266 263 263 263 259 256 253 250 248 246 246 244 242 240 239 237 235 234 233 231 229 227 227 226 224 223 222
293 291 288 285 283 283 283 282 281 279 277 275 273 271 270 268 266 264 262 262 260 257 254 251 249 247 247 245 242 241 239 237 236 235 233 231 230 229 229 228 227 226 225
297 294 291 289 286 284 284 283 282 280 278 276 275 274 271 269 267 265 262 260 260 259 257 253 251 250 248 245 243 242 240 238 236 235 233 233 232 231 230 229 229 228 227
298 297 295 291 288 287 287 285 283 281 278 276 275 273 272 270 267 265 263 260 259 258 257 255 251 250 249 246 244 242 240 238 237 236 235 234 233 232 231 230 229 229 229
302 300 297 294 292 291 290 288 286 283 281 278 276 273 271 269 267 265 263 260 258 257 256 255 252 250 249 247 245 243 241 239 237 237 236 235 234 232 232 231 230 230 231
306 304 301 297 294 292 290 288 286 284 282 280 278 275 271 269 266 264 262 259 257 256 255 255 252 250 248 247 245 245 242 239 237 236 236 236 234 233 231 230 231 231 232
309 307 304 301 298 295 293 290 288 285 283 281 279 277 274 270 267 265 263 259 257 256 256 255 252 251 249 248 246 244 242 240 238 237 237 237 234 232 230 230 230 230 232
312 310 307 304 301 299 296 293 290 287 285 282 280 278 276 273 270 267 265 263 259 256 255 254 253 252 251 249 247 245 242 240 239 237 237 237 234 231 229 229 230 230 231
314 312 310 307 304 301 299 297 294 291 289 286 282 279 277 275 272 269 266 264 261 258 255 254 253 251 250 249 247 244 242 240 239 239 237 236 233 230 228 228 229 230 231
317 315 313 310 307 304 301 299 296 293 291 288 285 283 280 278 274 270 267 264 262 259 256 254 252 250 249 248 247 245 242 240 239 239 236 235 232 229 229 228 228 228 230
318 316 313 311 309 306 303 301 298 294 292 289 286 284 282 280 277 273 268 265 261 259 257 255 252 250 249 247 246 245 243 240 240 238 236 233 232 229 227 228 227 228 229
320 317 314 311 309 306 303 301 298 295 292 289 286 283 281 279 277 274 271 267 263 259 257 255 253 251 249 247 245 244 243 241 240 239 235 232 231 230 228 228 227 227 228
320 318 316 313 310 307 304 301 298 295 292 289 286 283 280 278 276 273 271 268 265 261 257 255 253 251 250 248 246 244 243 241 240 239 235 232 231 230 228 227 226 227 227
321 319 317 314 311 308 305 302 299 296 292 289 286 283 280 278 275 273 271 268 265 262 258 255 254 252 251 248 247 245 243 241 239 239 236 231 230 229 228 227 226 226 225
322 321 318 316 313 311 307 304 301 298 294 290 286 283 280 278 275 273 271 268 266 263 259 255 253 252 250 248 246 245 243 241 239 239 237 232 230 229 227 226 225 224 224
323 322 320 318 316 313 310 307 303 300 296 292 288 284 281 278 276 273 271 268 266 263 260 256 253 252 249 247 245 243 242 241 239 237 236 232 230 228 227 225 225 223 223
324 323 321 319 318 315 312 309 305 302 299 294 290 286 282 279 276 274 271 268 266 263 260 257 254 251 249 246 244 242 241 240 238 235 234 232 229 228 226 225 224 223 222
325 324 323 321 319 316 314 310 307 304 301 297 293 288 284 280 277 274 272 268 266 263 260 257 254 251 248 245 243 241 240 239 238 234 232 231 229 226 225 224 223 223 222
326 325 324 322 320 317 314 311 309 306 302 298 294 290 286 282 279 276 273 269 266 264 260 257 254 251 248 245 242 240 239 238 237 235 232 230 229 226 224 222 222 222 222
327 325 324 323 320 318 315 313 311 308 304 300 296 292 288 284 280 278 274 271 268 264 261 257 254 251 248 244 241 238 236 235 234 234 233 230 228 226 223 222 221 221 220
327 326 325 323 321 319 316 314 312 310 307 302 298 294 290 286 283 280 277 272 269 265 261 256 252 249 246 243 240 237 235 234 233 232 231 229 228 226 223 223 221 220 220
327 327 325 324 322 319 317 316 314 311 308 305 301 297 293 289 285 282 278 274 269 265 261 257 252 248 245 242 239 236 234 232 231 230 228 228 226 225 224 225 222 219 219
327 327 326 324 322 319 318 317 315 313 310 307 304 300 296 292 288 283 280 275 270 266 261 257 253 248 244 240 237 234 233 231 230 229 227 226 225 225 224 224 221 219 218
Height
5873 5874 5874 5874 5874 5875 5875 5875 5876 5876 5876 5877 5877 5878 5878 5877 5879 5880 5880 5882 5883 5885 5887 5889 5891 5893 5896 5898 5901 5903 5906 5908 5910 5912 5914 5915 5917 5919 5921 5922 5924 5926 5927
5869 5869 5870 5871 5871 5871 5871 5871 5871 5871 5872 5873 5873 5874 5874 5874 5875 5876 5876 5876 5877 5879 5882 5884 5886 5889 5891 5894 5897 5899 5902 5905 5907 5909 5911 5913 5915 5917 5919 5921 5923 5924 5926
5865 5865 5866 5866 5866 5866 5866 5866 5866 5866 5867 5867 5868 5869 5870 5870 5870 5871 5871 5872 5873 5874 5876 5879 5881 5884 5886 5889 5892 5895 5898 5900 5903 5906 5908 5911 5913 5915 5917 5919 5921 5923 5924
5861 5861 5862 5862 5862 5862 5862 5862 5861 5862 5862 5862 5863 5864 5864 5865 5865 5866 5866 5867 5868 5870 5871 5873 5875 5877 5880 5883 5886 5889 5892 5895 5899 5901 5904 5907 5910 5912 5914 5916 5918 5920 5922
5858 5858 5858 5858 5857 5857 5857 5856 5856 5856 5856 5856 5856 5857 5858 5859 5860 5860 5861 5861 5862 5864 5866 5867 5869 5871 5874 5877 5880 5883 5886 5890 5893 5896 5899 5903 5906 5908 5911 5913 5916 5918 5920
5854 5853 5853 5853 5852 5852 5851 5851 5850 5850 5850 5850 5850 5851 5851 5852 5853 5854 5854 5855 5856 5858 5859 5861 5863 5865 5868 5871 5874 5877 5880 5884 5887 5891 5894 5897 5901 5904 5907 5910 5912 5915 5917
5850 5849 5848 5848 5847 5846 5846 5845 5844 5843 5843 5844 5844 5844 5845 5845 5846 5847 5848 5849 5850 5851 5853 5854 5856 5858 5861 5864 5867 5870 5873 5877 5881 5884 5888 5892 5895 5899 5902 5905 5908 5911 5913
5846 5844 5843 5842 5841 5840 5839 5838 5837 5837 5836 5836 5837 5837 5838 5839 5838 5839 5841 5841 5843 5844 5846 5847 5849 5851 5854 5856 5860 5863 5866 5870 5874 5878 5882 5886 5889 5893 5897 5900 5904 5907 5909
5841 5840 5839 5837 5835 5834 5833 5832 5831 5830 5829 5829 5828 5829 5830 5830 5831 5832 5832 5833 5835 5836 5838 5840 5842 5844 5847 5849 5852 5855 5859 5862 5867 5871 5875 5879 5883 5887 5891 5895 5898 5902 5905
5837 5835 5833 5832 5830 5828 5827 5825 5824 5823 5822 5821 5820 5820 5821 5822 5822 5823 5824 5825 5826 5828 5829 5832 5834 5836 5839 5842 5844 5848 5851 5855 5859 5863 5867 5871 5875 5880 5884 5888 5892 5896 5899
5832 5831 5829 5826 5824 5822 5820 5818 5817 5815 5814 5813 5813 5812 5812 5813 5813 5814 5815 5816 5817 5819 5821 5823 5825 5828 5831 5833 5836 5840 5843 5847 5850 5854 5859 5863 5868 5873 5877 5882 5886 5890 5894
5828 5826 5824 5821 5818 5816 5814 5812 5810 5808 5807 5805 5804 5804 5804 5804 5804 5805 5806 5807 5808 5810 5812 5814 5816 5819 5822 5825 5828 5831 5834 5838 5842 5846 5850 5855 5860 5865 5870 5875 5879 5884 5888
5823 5820 5818 5815 5812 5810 5807 5805 5803 5801 5799 5797 5796 5795 5795 5794 5794 5795 5796 5798 5799 5801 5802 5804 5807 5809 5812 5815 5819 5822 5825 5830 5833 5837 5842 5847 5852 5857 5862 5867 5872 5877 5881
5818 5815 5812 5809 5806 5803 5800 5797 5795 5793 5791 5789 5788 5786 5786 5785 5785 5785 5786 5787 5789 5791 5793 5795 5796 5800 5802 5805 5809 5812 5816 5820 5824 5829 5833 5838 5843 5848 5854 5859 5865 5869 5874
5813 5810 5806 5803 5799 5796 5793 5790 5787 5784 5782 5780 5779 5777 5776 5776 5775 5775 5775 5777 5779 5781 5783 5784 5786 5789 5792 5795 5799 5802 5807 5811 5815 5819 5824 5829 5834 5840 5845 5851 5857 5862 5867
5808 5804 5800 5796 5792 5789 5785 5782 5779 5776 5773 5771 5769 5767 5766 5765 5765 5765 5765 5766 5767 5769 5772 5774 5776 5779 5782 5785 5789 5793 5797 5801 5806 5810 5815 5820 5825 5831 5837 5843 5848 5854 5859
5802 5798 5793 5789 5785 5780 5776 5773 5769 5766 5763 5761 5758 5757 5755 5754 5754 5754 5754 5755 5756 5757 5760 5763 5765 5768 5771 5774 5778 5782 5786 5791 5795 5800 5805 5810 5816 5822 5828 5834 5840 5846 5852
5796 5791 5786 5781 5776 5772 5767 5763 5759 5755 5752 5750 5747 5745 5744 5743 5742 5742 5742 5743 5744 5745 5748 5751 5753 5756 5760 5763 5768 5772 5776 5781 5785 5790 5795 5800 5806 5813 5819 5825 5831 5837 5844
5789 5784 5778 5773 5768 5763 5758 5753 5749 5745 5741 5738 5736 5734 5732 5731 5730 5730 5729 5730 5731 5733 5735 5738 5741 5744 5748 5752 5756 5761 5765 5770 5775 5779 5785 5790 5796 5803 5809 5816 5822 5829 5835
5782 5776 5770 5764 5759 5753 5748 5743 5738 5734 5731 5727 5724 5722 5720 5719 5718 5717 5717 5718 5718 5720 5722 5725 5729 5732 5736 5740 5744 5749 5754 5759 5764 5769 5775 5780 5786 5792 5799 5806 5813 5820 5826
5774 5768 5762 5756 5749 5743 5738 5733 5728 5724 5720 5717 5713 5711 5709 5707 5706 5705 5705 5706 5706 5708 5710 5713 5716 5720 5724 5728 5732 5737 5743 5748 5753 5759 5765 5770 5776 5782 5788 5796 5803 5810 5817
5767 5760 5753 5747 5740 5734 5728 5723 5718 5714 5710 5706 5703 5700 5697 5696 5695 5694 5693 5693 5694 5696 5698 5700 5704 5707 5711 5715 5720 5725 5731 5737 5743 5749 5754 5760 5766 5772 5779 5786 5793 5801 5808
5759 5752 5745 5738 5731 5724 5719 5714 5709 5704 5700 5696 5693 5689 5687 5684 5683 5682 5681 5681 5682 5683 5685 5687 5691 5694 5698 5703 5707 5713 5719 5725 5732 5737 5743 5749 5756 5762 5769 5776 5783 5791 5798
5750 5743 5736 5729 5722 5715 5710 5705 5699 5695 5690 5686 5682 5679 5676 5673 5671 5670 5669 5669 5669 5670 5671 5674 5678 5681 5684 5689 5694 5700 5706 5713 5720 5726 5732 5739 5745 5752 5759 5766 5773 5780 5788
5742 5734 5727 5720 5713 5707 5701 5695 5690 5685 5681 5676 5672 5668 5665 5663 5661 5658 5657 5657 5657 5657 5657 5660 5664 5667 5671 5676 5681 5687 5694 5701 5708 5715 5721 5728 5734 5741 5748 5755 5763 5770 5777
5733 5726 5718 5711 5705 5698 5692 5687 5681 5676 5671 5667 5663 5659 5655 5652 5650 5647 5645 5644 5644 5644 5645 5647 5650 5654 5658 5663 5668 5675 5681 5688 5696 5703 5710 5717 5724 5731 5738 5744 5752 5760 5767